The Dalles, OR (97058)

11:51 PM PDT on May 25, 2015 (GMT -0700)
17th and Jefferson ST | | Change Station
CLOSE
Current Station
Personal Weather Station
Location: The Dalles, OR
Elevation: 486 ft
Nearby Weather Stations

Elev 486 ft 45.59 °N, 121.19 °W | Updated 15 seconds ago

Clear
Clear
61.3 °F
Feels Like 61.3 °F
N
4.9
Wind Variable Wind from NNW
Gusts 9.2 mph

Today
High -- | Low -- °F
--% Chance of Precip.
Yesterday
High -- | Low -- °F
Precip. -- in
5:24 AM 8:39 PM
First Quarter, 55% visible
Pressure 29.93 in
Visibility 10.0 miles
Clouds Clear
Dew Point 47 °F
Humidity 60%
Rainfall 0.00 in
Snow Depth Not available.
UV 0.0 out of 12
Pollen 7.30 out of 12
Air Quality Not available.
Flu Activity No Activity
METAR KDLS 260553Z AUTO 31008G19KT 10SM CLR 17/08 A2993 RMK AO2 SLP134 T01670078 10244 20161 53018

More Conditions Fewer Conditions

Pressure 29.93 in
Visibility 10.0 miles
Clouds Clear
Dew Point 47 °F
Humidity 60%
Rainfall 0.00 in
Snow Depth Not available.
UV 0.0 out of 12
Pollen 7.30 out of 12
Air Quality Not available.
Flu Activity No Activity
METAR KDLS 260553Z AUTO 31008G19KT 10SM CLR 17/08 A2993 RMK AO2 SLP134 T01670078 10244 20161 53018

More Conditions Fewer Conditions

10-Day Weather Forecast

Almanac

Astronomy

May. 25, 2015 Rise Set
Actual Time
Civil Twilight
Nautical Twilight
Astronomical Twilight
Moon
Length of Visible Light
Length of Day
Tomorrow will be .
, % of the Moon is Illuminated

Today's Extremes

State Highs State Lows

Community

WunderPhotos

Upload Photos

1,824,294 photos uploaded!

WunderBlogs® & News

Nearby

Air Quality

  Air Quality AQ Index Pollutant
Not available.

Snow Depth

Station Depth Elevation

Earthquake Activity

City Distance Mag. Time & Date
Minimum magnitude displayed is 2.5.

Coastal Water Temperatures

Place Temperature

Stations

Nearby Weather Stations

Station Location Temp. Windchill Dew Point Humidity Wind Precip. Elev Updated Type